Total_Precipitation_Accumulation
1.88 2.87 1.26 0.45 0.12 0.04 0.03 0.06 0.03 0.03 0.04 0.14 0.15 0.09 0.09 0.10 0.10 0.01 0.00 0.00 0.00 0.00 0.00 0.00 0.03 0.14 0.21 0.15 0.13 0.14 0.16 0.10 0.07 0.11 0.16 0.26 0.29 0.35 0.23 0.23 0.40 0.27 0.27 0.30
2.05 1.52 0.58 0.37 0.16 0.08 0.09 0.10 0.09 0.12 0.12 0.07 0.10 0.07 0.05 0.10 0.08 0.03 0.00 0.00 0.00 0.00 0.00 0.00 0.00 0.01 0.05 0.15 0.23 0.23 0.12 0.27 0.20 0.08 0.15 0.35 0.53 0.55 0.44 0.49 0.41 0.31 0.42 0.49
1.48 1.00 0.57 0.46 0.30 0.19 0.12 0.10 0.14 0.09 0.19 0.13 0.06 0.04 0.02 0.03 0.01 0.02 0.00 0.00 0.00 0.00 0.00 0.00 0.00 0.00 0.00 0.02 0.04 0.10 0.20 0.33 0.32 0.33 0.22 0.45 0.51 0.54 0.51 0.29 0.19 0.26 0.40 0.71
1.38 0.94 0.85 0.58 0.45 0.16 0.13 0.04 0.09 0.12 0.21 0.20 0.12 0.06 0.00 0.00 0.00 0.00 0.00 0.00 0.00 0.00 0.00 0.00 0.00 0.00 0.00 0.00 0.00 0.04 0.04 0.13 0.13 0.11 0.29 0.38 0.29 0.32 0.34 0.39 0.47 0.47 0.44 0.61
1.41 1.01 1.02 0.79 0.57 0.20 0.15 0.04 0.07 0.15 0.27 0.41 0.13 0.10 0.01 0.00 0.00 0.00 0.00 0.00 0.00 0.00 0.00 0.00 0.00 0.00 0.00 0.00 0.00 0.01 0.03 0.16 0.17 0.11 0.19 0.14 0.24 0.13 0.14 0.25 0.28 0.28 0.33 0.36
0.80 0.95 1.01 0.72 0.60 0.30 0.19 0.18 0.18 0.29 0.41 0.57 0.34 0.10 0.02 0.00 0.00 0.00 0.00 0.00 0.00 0.00 0.00 0.00 0.00 0.00 0.00 0.00 0.01 0.01 0.02 0.06 0.13 0.08 0.14 0.06 0.14 0.11 0.08 0.11 0.17 0.18 0.20 0.18
1.66 1.42 1.06 0.70 0.93 0.70 0.52 0.63 0.97 0.96 0.96 0.38 0.07 0.24 0.11 0.00 0.00 0.00 0.00 0.00 0.00 0.00 0.00 0.00 0.00 0.00 0.00 0.00 0.00 0.00 0.02 0.05 0.14 0.13 0.17 0.15 0.14 0.18 0.14 0.16 0.19 0.17 0.12 0.08
1.50 1.55 1.13 0.94 0.89 1.03 0.73 0.57 0.81 0.43 0.31 0.13 0.05 0.07 0.03 0.00 0.00 0.00 0.00 0.00 0.00 0.00 0.00 0.00 0.00 0.00 0.00 0.00 0.00 0.00 0.00 0.00 0.02 0.05 0.06 0.07 0.05 0.08 0.08 0.09 0.10 0.10 0.11 0.11
0.67 0.84 0.61 0.59 0.58 0.74 0.81 0.75 0.49 0.51 0.22 0.32 0.10 0.02 0.00 0.00 0.00 0.00 0.00 0.00 0.00 0.00 0.00 0.00 0.00 0.00 0.00 0.00 0.00 0.00 0.00 0.00 0.00 0.00 0.01 0.01 0.01 0.05 0.05 0.04 0.04 0.06 0.06 0.07
0.36 0.74 0.72 0.67 0.74 0.83 0.60 0.36 0.54 1.10 0.49 0.20 0.11 0.06 0.00 0.00 0.00 0.00 0.00 0.00 0.00 0.00 0.00 0.00 0.00 0.00 0.00 0.00 0.00 0.00 0.00 0.00 0.00 0.02 0.02 0.01 0.04 0.04 0.04 0.03 0.03 0.05 0.06 0.06
0.45 0.67 0.80 1.02 1.01 0.78 0.65 0.65 0.52 0.58 0.29 0.14 0.06 0.08 0.01 0.00 0.00 0.02 0.01 0.01 0.01 0.01 0.00 0.00 0.00 0.00 0.00 0.00 0.00 0.00 0.00 0.00 0.00 0.01 0.00 0.01 0.03 0.03 0.04 0.04 0.04 0.04 0.04 0.05
0.38 0.56 0.76 0.62 0.21 0.17 0.28 0.28 0.20 0.78 0.40 0.27 0.17 0.06 0.01 0.01 0.00 0.02 0.03 0.03 0.02 0.01 0.00 0.00 0.00 0.00 0.00 0.00 0.00 0.00 0.00 0.01 0.01 0.01 0.00 0.01 0.02 0.04 0.05 0.05 0.05 0.06 0.05 0.05
0.29 0.74 0.78 0.76 0.52 0.49 0.65 0.35 0.28 0.62 1.13 0.62 0.31 0.07 0.00 0.01 0.01 0.01 0.01 0.03 0.01 0.00 0.00 0.00 0.00 0.00 0.00 0.00 0.02 0.04 0.04 0.02 0.01 0.01 0.01 0.03 0.05 0.06 0.07 0.07 0.06 0.06 0.05 0.04
0.66 0.61 0.75 0.75 0.74 0.79 0.55 0.31 0.49 1.00 1.36 0.39 0.17 0.03 0.01 0.01 0.03 0.02 0.03 0.04 0.06 0.02 0.01 0.00 0.00 0.00 0.00 0.01 0.05 0.05 0.04 0.02 0.05 0.05 0.05 0.06 0.06 0.07 0.08 0.08 0.06 0.07 0.07 0.06
0.73 0.94 1.21 0.74 0.38 0.93 0.53 0.29 0.37 0.87 0.61 0.58 0.18 0.07 0.02 0.01 0.04 0.10 0.09 0.11 0.06 0.03 0.01 0.00 0.01 0.01 0.01 0.01 0.03 0.04 0.07 0.08 0.08 0.11 0.11 0.09 0.07 0.05 0.05 0.06 0.05 0.05 0.05 0.06
0.47 0.79 0.96 0.56 0.17 0.33 0.34 0.15 0.20 0.19 0.31 0.41 0.17 0.22 0.05 0.02 0.12 0.29 0.17 0.22 0.11 0.06 0.02 0.01 0.01 0.00 0.00 0.00 0.01 0.02 0.06 0.10 0.16 0.15 0.10 0.07 0.06 0.06 0.07 0.06 0.06 0.08 0.09 0.11
0.28 0.45 0.78 0.63 0.37 0.24 0.42 0.26 0.15 0.14 0.20 0.33 0.31 0.19 0.07 0.07 0.29 0.31 0.31 0.30 0.09 0.03 0.01 0.00 0.00 0.00 0.00 0.00 0.01 0.01 0.03 0.06 0.07 0.06 0.04 0.04 0.07 0.10 0.09 0.07 0.05 0.09 0.23 0.40
0.08 0.26 0.46 0.49 0.49 0.51 0.43 0.25 0.11 0.13 0.16 0.21 0.24 0.14 0.04 0.16 0.20 0.13 0.30 0.25 0.11 0.01 0.00 0.00 0.00 0.00 0.00 0.00 0.00 0.01 0.02 0.07 0.16 0.23 0.24 0.20 0.38 0.53 0.37 0.44 0.56 0.63 0.43 0.44
0.03 0.17 0.28 0.18 0.21 0.21 0.08 0.13 0.19 0.13 0.12 0.09 0.10 0.15 0.11 0.08 0.12 0.19 0.13 0.03 0.02 0.02 0.01 0.00 0.00 0.00 0.00 0.00 0.00 0.01 0.02 0.04 0.15 0.33 0.58 0.61 0.65 0.67 0.73 1.09 1.03 1.18 1.08 0.85
0.03 0.09 0.31 0.12 0.11 0.00 0.02 0.05 0.03 0.01 0.05 0.01 0.02 0.04 0.05 0.09 0.30 0.28 0.09 0.02 0.01 0.01 0.01 0.01 0.00 0.00 0.00 0.00 0.03 0.05 0.04 0.08 0.18 0.26 0.22 0.62 0.78 0.63 0.58 0.63 0.64 0.72 0.50 0.52
0.12 0.17 0.26 0.18 0.19 0.00 0.00 0.00 0.00 0.05 0.04 0.00 0.00 0.01 0.03 0.07 0.08 0.08 0.08 0.07 0.03 0.02 0.01 0.01 0.02 0.02 0.04 0.07 0.13 0.25 0.23 0.41 0.54 0.84 0.62 0.66 0.80 0.64 0.47 0.54 0.36 0.35 0.38 0.30
0.03 0.05 0.08 0.12 0.13 0.01 0.00 0.00 0.01 0.02 0.00 0.00 0.00 0.01 0.08 0.08 0.07 0.07 0.01 0.01 0.08 0.17 0.23 0.25 0.18 0.14 0.18 0.22 0.37 0.72 0.66 0.65 0.70 0.64 0.69 0.44 0.40 0.30 0.22 0.15 0.14 0.10 0.05 0.03
0.00 0.00 0.00 0.00 0.00 0.00 0.00 0.00 0.00 0.00 0.00 0.00 0.00 0.01 0.05 0.07 0.18 0.11 0.01 0.01 0.01 0.07 0.28 0.54 0.49 0.45 0.55 0.41 0.43 0.59 0.46 0.28 0.14 0.17 0.12 0.05 0.02 0.02 0.01 0.01 0.00 0.00 0.00 0.00
0.00 0.00 0.00 0.00 0.00 0.00 0.00 0.00 0.00 0.00 0.00 0.00 0.00 0.00 0.00 0.00 0.00 0.00 0.01 0.01 0.02 0.01 0.01 0.02 0.02 0.06 0.14 0.14 0.14 0.18 0.12 0.06 0.02 0.01 0.00 0.00 0.00 0.00 0.00 0.00 0.00 0.00 0.00 0.00
0.01 0.00 0.00 0.00 0.00 0.00 0.00 0.00 0.00 0.00 0.00 0.00 0.00 0.00 0.01 0.01 0.00 0.00 0.02 0.03 0.04 0.04 0.04 0.03 0.04 0.03 0.01 0.00 0.00 0.01 0.01 0.01 0.02 0.01 0.01 0.01 0.00 0.00 0.00 0.00 0.01 0.00 0.00 0.00
0.00 0.00 0.01 0.01 0.00 0.02 0.00 0.00 0.00 0.00 0.00 0.00 0.00 0.00 0.01 0.03 0.04 0.01 0.01 0.03 0.03 0.02 0.02 0.01 0.01 0.02 0.03 0.04 0.06 0.06 0.04 0.02 0.02 0.02 0.02 0.03 0.02 0.02 0.02 0.02 0.03 0.05 0.03 0.01